Weather History for KGSH - August, 2014

Change the Weather History Date:

Saturday, August 9, 2014

  Actual Average Record
Temperature  
Mean Temperature 72 °F -  
Max Temperature 84 °F 82 °F 91 °F (1949)
Min Temperature 60 °F 62 °F 43 °F (1964)
Cooling Degree Days 7    
Growing Degree Days 22 (Base 50)    
Moisture  
Dew Point 57 °F    
Average Humidity 62    
Maximum Humidity 87    
Minimum Humidity 37    
Precipitation  
Precipitation 0.00 in - - ()
Sea Level Pressure  
Sea Level Pressure 30.08 in    
Wind  
Wind Speed 7 mph (East)    
Max Wind Speed 12 mph    
Max Gust Speed -    
Visibility 9 miles    
Events      
Averages and records for this station are not official NWS values.
T = Trace of Precipitation, MM = Missing Value Source: NWS Daily Summary

Daily Weather History Graph

Daily Weather History Graph

Search for Another Location

Airport or City:

Trip Planner

Search our weather history database for the weather conditions in past years. The results will help you decide how hot, cold, wet, or windy it might be!

Date:

Astronomy

Aug. 09, 2014 Rise Set
Actual Time 6:45 AM EDT 8:50 PM EDT
Civil Twilight 6:15 AM EDT 9:21 PM EDT
Nautical Twilight 5:38 AM EDT 9:58 PM EDT
Astronomical Twilight 4:57 AM EDT 10:38 PM EDT
Moon 7:51 PM EDT (8/9) 5:25 AM EDT (8/9)
Length of Visible Light 15h 05m
Length of Day
14h 04m
Waxing Gibbous, 98% of the Moon is Illuminated
Aug 9
Waxing Gibbous
Aug 10
Full
Aug 17
Last Quarter
Aug 25
New
Sep 2
First Quarter

Hourly Weather History & Observations

Time (EDT) Temp. Heat Index Dew Point Humidity Pressure Visibility Wind Dir Wind Speed Gust Speed Precip Events Conditions
12:53 AM 64.9 °F - 55.0 °F 70% 30.08 in 10.0 mi East 8.1 mph - N/A   Clear
1:53 AM 63.0 °F - 55.0 °F 75% 30.10 in 10.0 mi East 5.8 mph - N/A   Clear
2:53 AM 62.1 °F - 55.9 °F 80% 30.08 in 10.0 mi ENE 6.9 mph - N/A   Clear
3:53 AM 61.0 °F - 57.0 °F 87% 30.08 in 8.0 mi East 3.5 mph - N/A   Clear
4:53 AM 61.0 °F - 55.9 °F 83% 30.09 in 8.0 mi Calm Calm - N/A   Clear
5:53 AM 61.0 °F - 57.0 °F 87% 30.09 in 7.0 mi East 5.8 mph - N/A   Clear
6:53 AM 60.1 °F - 55.9 °F 86% 30.09 in 4.0 mi NE 3.5 mph - N/A   Clear
7:53 AM 62.1 °F - 57.9 °F 86% 30.10 in 5.0 mi East 4.6 mph - N/A   Clear
8:53 AM 64.9 °F - 59.0 °F 81% 30.09 in 7.0 mi ENE 8.1 mph - N/A   Clear
9:53 AM 72.0 °F - 61.0 °F 68% 30.09 in 10.0 mi East 9.2 mph - N/A   Clear
10:53 AM 75.9 °F - 59.0 °F 56% 30.10 in 10.0 mi East 10.4 mph - N/A   Clear
11:53 AM 79.0 °F - 59.0 °F 50% 30.11 in 10.0 mi East 11.5 mph - N/A   Clear
1:53 PM 82.9 °F 82.4 °F 57.0 °F 41% 30.09 in 10.0 mi East 9.2 mph - N/A   Clear
2:53 PM 82.9 °F 82.6 °F 57.9 °F 42% 30.08 in 9.0 mi East 10.4 mph - N/A   Clear
3:53 PM 84.0 °F 83.0 °F 55.9 °F 38% 30.06 in 10.0 mi East 10.4 mph - N/A   Clear
4:53 PM 84.9 °F 83.7 °F 55.9 °F 37% 30.05 in 10.0 mi East 11.5 mph - N/A   Clear
5:53 PM 84.0 °F 83.3 °F 57.0 °F 40% 30.04 in 10.0 mi East 9.2 mph - N/A   Clear
6:53 PM 82.9 °F 82.4 °F 57.0 °F 41% 30.04 in 10.0 mi East 10.4 mph - N/A   Clear
7:53 PM 80.1 °F 80.4 °F 57.0 °F 45% 30.04 in 10.0 mi East 10.4 mph - N/A   Clear
8:53 PM 73.0 °F - 55.9 °F 55% 30.06 in 10.0 mi East 9.2 mph - N/A   Clear
9:53 PM 69.1 °F - 55.9 °F 63% 30.07 in 10.0 mi East 9.2 mph - N/A   Clear